Theta_e
303 304 304 304 304 305 307 309 313 315 320 319 318 316 314 312 312 302 295 297 295 285 285 288 288 289 287 284 281 282 283 282 280 283 279 278 278 278 277 277 277 277 272 270 268 266 273 280 279 274 276 279 281 280
302 303 303 304 304 304 306 308 310 314 315 319 318 316 314 313 312 302 294 294 294 289 286 289 289 289 288 289 285 283 287 283 287 283 279 278 278 275 277 277 277 274 279 277 277 277 279 280 279 281 281 280 280 281
302 302 303 303 303 304 305 307 309 312 314 317 316 315 314 313 311 301 292 292 291 286 286 286 285 289 290 289 290 285 285 288 288 288 281 278 278 278 275 277 276 276 279 276 277 277 278 280 281 282 283 282 284 282
301 302 303 303 303 304 305 306 307 310 312 316 316 315 313 313 309 301 295 295 293 289 284 283 289 286 290 289 290 290 289 291 289 284 278 277 279 279 277 280 278 278 278 277 276 276 279 279 281 283 284 284 283 283
301 301 302 303 303 303 304 305 306 308 311 314 315 314 313 312 308 300 297 298 298 297 280 281 285 287 289 290 291 291 290 288 284 281 278 277 278 278 275 276 275 278 278 277 278 280 279 279 282 284 284 283 283 282
299 301 301 302 303 304 304 304 305 307 310 312 315 313 312 309 306 298 290 296 295 292 284 280 284 284 287 288 289 288 288 284 280 279 276 277 279 278 272 275 280 280 280 282 281 281 281 283 284 285 283 283 284 282
299 299 301 301 302 303 304 304 304 306 309 311 314 311 309 308 300 296 293 296 298 293 284 278 278 284 284 286 284 285 284 280 282 277 278 277 277 278 273 275 282 281 281 282 283 284 281 282 282 284 284 284 286 283
298 299 300 301 301 303 303 305 304 305 309 311 313 309 307 304 300 293 294 301 296 289 285 275 272 279 284 281 279 282 279 278 279 277 277 278 276 275 273 280 279 281 281 282 283 280 283 284 285 283 283 283 282 281
298 299 300 301 301 302 304 304 305 306 309 311 309 305 301 297 291 291 303 299 294 291 279 275 277 276 283 278 278 280 281 277 278 276 277 278 273 273 281 280 281 281 282 281 281 283 284 284 283 282 281 281 281 281
297 298 300 300 300 302 305 304 305 307 308 308 302 296 288 292 302 304 296 289 287 283 281 277 279 276 281 278 275 278 276 274 274 277 277 272 276 281 282 283 283 283 283 283 281 280 281 281 281 280 281 282 282 282
297 298 299 299 299 302 305 305 306 308 306 298 293 290 290 302 298 291 286 285 279 278 278 279 279 277 282 279 278 278 274 269 273 276 275 273 275 279 282 281 284 283 284 285 284 285 285 284 282 281 281 282 283 283
297 298 298 298 299 300 305 306 307 305 299 298 295 293 292 289 286 288 286 285 284 285 279 280 280 282 280 281 280 276 274 273 273 276 271 274 280 282 283 282 283 284 284 283 285 284 284 283 282 282 282 282 283 283
297 298 298 298 298 301 305 306 306 306 300 296 293 286 285 286 287 286 283 283 282 280 280 280 279 281 281 280 277 276 272 275 278 271 274 279 282 281 281 282 283 284 284 284 284 285 284 283 283 283 283 283 283 283
295 297 297 297 297 303 304 305 304 303 300 291 288 284 284 285 286 285 289 286 284 282 283 284 280 282 281 279 276 275 271 274 270 271 277 282 281 281 281 284 283 283 283 284 284 284 283 283 283 283 284 283 283 282
295 297 297 297 299 304 304 304 304 303 295 291 290 285 286 286 281 285 285 283 282 287 284 282 282 282 279 277 273 272 269 270 275 278 280 281 282 281 282 283 284 283 284 284 284 284 283 283 283 282 283 283 283 282
295 296 294 298 302 303 303 303 300 300 289 290 290 288 287 284 279 281 283 281 288 289 285 284 277 275 271 274 270 276 277 278 281 279 282 282 282 283 283 284 284 285 284 284 284 284 283 283 282 283 283 283 283 282
294 291 296 297 299 300 301 298 295 295 296 291 288 289 292 287 287 281 284 285 291 289 289 282 281 281 275 269 273 278 280 284 284 282 282 284 283 283 284 284 284 285 284 284 283 283 283 283 283 283 282 282 283 283
289 293 296 296 298 296 297 293 290 285 284 285 288 286 291 291 285 284 285 290 290 290 286 286 279 273 276 277 278 282 283 282 283 283 283 283 284 285 285 284 285 285 284 284 284 283 282 282 282 282 282 283 283 282
292 293 296 297 297 290 287 288 287 284 285 286 286 283 288 289 292 289 289 291 285 287 286 283 281 279 280 281 284 284 284 281 280 278 279 283 285 285 284 285 285 285 284 283 282 283 283 283 283 282 283 283 282 280
294 295 296 297 297 286 284 284 285 285 284 286 286 286 287 289 288 289 290 285 286 287 286 281 283 283 286 286 288 291 288 284 282 280 279 282 284 284 284 285 285 284 284 283 283 285 282 280 281 283 283 283 282 280
293 292 295 295 286 285 284 284 284 285 286 286 285 289 285 286 287 287 288 285 284 286 286 283 284 284 287 288 290 289 286 287 287 286 283 281 284 285 284 285 285 285 283 283 282 282 284 282 282 283 285 283 282 281
290 294 288 290 285 284 282 284 285 285 284 285 284 285 285 285 285 286 286 284 283 295 285 286 286 286 286 288 288 289 288 287 284 288 289 287 283 283 284 284 284 283 283 283 283 283 283 282 283 283 283 283 284 281
293 292 286 285 282 282 280 284 282 283 282 283 286 284 283 284 286 287 285 285 283 285 286 285 285 287 289 288 287 287 286 287 285 285 285 285 285 286 285 285 285 284 283 283 285 284 283 285 286 283 283 283 282 281
292 285 282 281 281 278 280 278 280 281 281 282 285 279 280 282 284 282 283 282 283 283 282 285 287 285 285 286 285 285 286 287 286 286 286 285 284 284 285 285 285 285 285 285 284 283 283 283 286 283 283 283 282 281
281 280 281 277 280 276 275 275 277 278 278 280 278 276 279 283 281 281 283 286 279 282 283 287 289 289 287 286 286 286 288 287 286 284 285 286 285 285 284 284 284 285 285 284 283 282 282 284 283 283 283 283 282 281
277 280 278 276 274 274 275 273 275 278 278 277 279 279 279 280 281 282 287 285 283 286 285 287 288 286 288 288 286 285 286 289 288 285 285 286 286 284 282 281 280 281 285 285 283 282 282 283 282 282 283 284 286 282
276 276 278 278 276 277 277 280 281 279 278 276 277 277 278 280 282 284 284 292 288 290 290 291 292 292 290 288 288 290 290 289 288 288 288 288 287 287 286 283 282 284 285 285 285 284 283 282 282 283 283 283 284 283
279 274 274 277 278 280 277 278 279 278 281 280 278 277 282 286 287 284 284 287 294 292 290 291 292 293 292 291 290 289 288 287 287 287 286 284 284 286 286 284 286 288 286 286 285 285 284 284 283 283 283 283 283 282
272 270 275 275 272 278 278 280 282 285 284 281 283 280 282 281 283 281 281 291 292 291 290 288 287 290 290 289 289 289 287 286 283 281 281 281 281 282 285 285 285 285 285 285 289 287 285 284 284 284 284 284 284 283
269 277 277 275 273 275 280 283 281 281 281 281 279 279 278 277 278 279 283 290 290 291 292 292 289 289 286 286 285 285 288 289 290 288 284 283 284 285 285 284 284 285 285 285 285 285 290 287 287 284 283 282 283 282
275 277 273 277 276 281 281 280 279 280 281 280 279 278 278 278 279 279 284 289 292 293 292 290 289 290 288 287 286 284 284 288 290 291 288 290 287 285 285 285 285 285 286 285 285 285 285 284 283 282 282 282 283 283
277 277 277 269 273 277 278 278 278 278 278 279 278 276 277 277 276 279 280 285 289 291 293 291 289 289 291 292 291 289 291 289 289 287 288 286 285 286 286 286 286 286 285 285 285 285 284 283 283 283 282 283 283 282
277 278 280 276 276 276 277 277 275 275 275 276 276 277 277 278 278 281 280 282 287 291 292 291 292 292 291 290 290 289 290 289 289 290 289 289 289 288 287 286 286 286 285 285 285 285 284 283 283 283 283 283 283 282
Wind_Speed
15 15 14 13 15 18 19 20 20 17 10 12 11 10 9 8 9 4 1 4 5 5 1 2 3 5 4 4 7 7 6 3 3 3 4 4 3 5 1 3 5 6 6 3 3 4 5 6 5 6 5 3 4 1
15 16 16 15 13 16 18 20 22 21 19 13 12 11 11 9 11 5 4 1 4 9 3 0 3 2 1 2 7 1 2 5 7 6 0 4 3 2 4 2 2 2 7 5 9 6 0 5 3 4 5 5 4 2
15 16 17 18 15 16 17 19 19 19 16 12 13 12 12 11 11 6 4 4 5 6 4 3 2 5 3 1 2 7 3 4 3 2 5 3 4 5 5 6 3 3 3 3 3 2 5 6 4 5 5 5 4 2
13 15 17 17 17 14 16 19 20 21 19 14 14 14 13 13 13 7 4 4 5 5 7 3 3 2 6 1 2 1 6 5 6 3 3 4 4 3 4 3 4 5 6 6 3 1 4 4 5 7 6 6 5 2
15 15 17 17 17 15 15 17 20 20 21 18 16 16 14 16 13 6 3 2 2 6 6 2 3 4 5 5 7 5 6 5 3 3 3 2 3 4 1 2 4 7 9 7 7 10 6 6 9 8 7 5 5 2
15 16 17 18 17 17 16 19 20 19 21 19 18 18 17 19 15 5 5 2 4 5 8 4 4 2 5 6 9 7 4 4 4 4 2 1 1 4 4 5 5 6 5 5 5 7 3 12 11 6 7 7 5 6
16 18 18 18 19 19 21 19 21 20 22 19 19 20 20 19 4 4 7 3 8 4 7 4 2 3 2 4 3 4 4 2 4 2 2 3 1 4 3 5 3 8 7 7 12 16 8 5 7 9 8 6 9 5
17 19 21 19 22 22 22 21 21 22 21 19 20 21 18 17 11 3 3 7 5 8 5 6 2 1 1 2 3 2 2 3 5 3 2 2 3 3 4 7 5 7 9 10 9 2 9 10 11 8 6 6 6 5
19 20 22 22 23 24 24 23 21 21 18 15 22 24 8 2 3 4 13 11 4 5 7 4 10 7 2 2 2 3 3 3 2 2 2 3 0 7 10 9 14 14 11 14 7 10 12 15 11 9 7 7 6 4
18 21 24 19 23 28 24 23 21 20 21 26 16 3 3 5 19 17 7 3 5 4 4 4 3 4 5 2 1 4 2 3 2 3 3 3 7 6 6 9 14 16 13 17 17 9 11 11 11 8 8 6 6 6
20 20 23 19 25 32 21 22 21 12 22 3 4 1 2 17 5 3 4 5 1 1 2 4 4 7 3 5 4 1 4 1 3 5 6 3 7 7 10 12 13 12 17 15 8 10 13 16 14 9 8 7 7 6
20 20 20 20 28 34 20 20 14 11 3 9 7 4 3 3 3 8 7 3 6 10 4 8 7 5 3 4 6 2 4 2 5 4 4 5 9 6 12 16 17 15 16 11 13 15 13 13 11 10 9 8 7 6
22 19 20 21 29 32 22 20 15 11 11 4 4 2 5 4 7 17 16 6 7 7 8 7 6 6 3 3 5 4 5 4 5 2 7 9 2 6 10 14 15 14 16 13 11 13 13 12 10 10 9 6 7 6
22 19 21 21 29 23 25 17 15 14 3 4 8 8 8 8 10 8 10 10 5 8 14 10 6 6 3 4 4 7 3 4 2 3 10 6 9 13 12 14 17 18 17 15 15 14 15 14 10 9 8 8 7 6
22 20 22 28 24 18 19 17 13 6 4 7 6 7 9 4 2 4 8 9 5 14 13 7 6 5 3 6 2 7 4 7 9 8 7 5 14 17 17 17 18 17 17 15 15 15 14 13 11 9 7 7 7 6
21 18 7 24 5 9 12 9 7 3 3 6 8 4 0 3 2 2 6 7 9 15 6 5 7 6 3 8 7 11 11 10 7 8 4 10 17 17 17 17 16 16 17 16 15 15 14 13 12 11 8 7 7 7
18 3 11 21 21 9 9 4 4 8 6 6 4 3 5 2 6 4 5 8 13 15 11 7 8 9 6 4 4 7 10 6 5 4 6 13 21 20 17 17 16 16 17 17 15 14 14 11 10 10 9 7 7 6
7 8 17 17 16 4 5 5 4 4 6 5 3 4 4 3 5 3 4 16 13 8 7 8 10 6 10 12 6 6 6 2 2 5 9 12 15 16 16 19 17 17 17 16 15 14 13 13 12 9 9 8 7 6
8 9 16 16 9 2 4 5 6 4 7 2 2 2 2 3 3 4 11 15 2 6 11 3 6 8 7 6 6 5 6 5 7 4 5 10 14 17 17 16 16 16 16 16 15 11 11 13 10 8 7 7 6 5
18 19 20 15 7 3 4 3 1 4 5 4 1 2 2 2 3 4 11 3 6 6 4 7 7 6 8 6 6 8 9 11 14 11 8 7 9 15 16 16 13 15 13 13 11 15 8 6 5 7 8 8 8 6
13 9 14 6 0 3 3 2 3 4 3 4 2 7 3 1 5 4 10 2 2 6 7 6 5 4 3 3 6 11 14 17 16 16 17 13 11 12 12 11 13 12 12 12 12 12 15 10 8 8 9 6 6 6
4 10 2 4 3 4 3 3 3 1 2 2 4 3 6 3 6 5 3 4 6 11 5 6 5 6 6 8 12 13 17 10 8 13 15 22 15 14 14 14 14 14 13 13 13 13 11 9 9 8 8 7 8 6
7 4 2 4 5 7 5 4 5 4 4 5 6 6 4 5 5 6 5 6 5 3 4 4 5 5 8 11 13 12 13 17 13 12 15 13 11 12 13 13 13 15 13 12 11 12 11 15 14 10 8 8 8 6
2 4 6 7 8 6 3 4 3 3 1 4 6 5 5 5 5 3 6 4 3 1 1 11 13 11 8 9 9 12 13 11 11 11 12 15 13 12 12 12 11 11 11 11 12 11 11 11 15 11 10 10 9 8
8 10 6 7 4 5 5 4 4 3 4 3 3 4 4 5 5 7 6 7 3 5 5 9 10 13 12 8 8 10 12 14 16 16 12 11 12 11 10 9 8 9 11 14 14 14 13 12 11 12 12 11 12 11
12 11 11 10 5 6 8 6 8 8 4 3 7 6 4 5 6 9 12 10 8 10 11 13 13 8 10 11 16 13 13 12 12 12 13 15 17 18 19 18 14 10 12 13 14 16 16 14 14 16 13 15 19 12
7 6 4 2 5 4 4 2 3 4 7 8 5 9 8 8 10 7 3 14 9 9 12 11 12 15 16 14 7 9 11 12 8 10 10 13 11 11 17 22 25 16 16 17 16 19 19 18 16 15 13 10 11 12
5 7 10 8 5 5 6 6 8 10 6 4 3 9 13 9 9 6 6 6 11 16 15 8 4 3 9 14 14 15 13 11 12 14 11 7 4 5 7 5 10 26 16 15 17 16 16 16 16 15 15 13 10 9
4 4 6 8 4 5 7 9 6 5 6 6 6 5 6 4 3 4 4 11 13 16 16 12 5 8 9 9 9 13 17 19 22 22 22 14 12 8 10 10 13 14 13 14 23 21 20 17 16 15 15 12 10 9
7 9 12 9 9 11 9 8 5 3 2 3 1 5 4 3 3 1 2 11 14 18 20 18 15 16 16 17 15 15 14 15 18 23 22 21 19 14 15 16 17 16 15 16 16 15 25 17 17 11 10 9 9 8
6 8 4 11 11 15 8 4 3 3 3 3 3 2 4 4 3 1 3 8 9 11 15 17 16 16 18 18 17 17 15 13 16 12 4 11 15 17 18 17 16 16 17 17 17 16 16 15 14 15 14 14 15 14
8 13 14 9 6 2 4 4 4 3 3 2 2 2 3 3 4 3 3 5 10 13 20 19 19 19 19 15 15 9 12 14 14 10 21 16 17 18 18 16 16 16 18 18 18 18 21 19 15 16 16 17 16 15
4 5 8 4 5 5 4 5 4 4 2 3 4 4 4 4 7 5 1 3 7 11 14 14 11 11 13 13 12 9 14 14 20 24 26 27 28 25 17 16 16 18 22 19 18 19 21 22 18 18 17 17 16 14
Wind_Direction
299 302 308 309 318 319 320 327 322 320 251 200 194 198 197 181 166 96 113 360 109 102 353 20 15 130 99 122 141 182 81 314 51 119 129 198 150 217 129 170 186 176 140 199 78 56 314 142 100 169 194 139 142 146
300 301 301 304 308 308 315 318 322 330 334 208 190 193 189 186 168 120 90 355 64 77 141 313 123 95 81 129 125 173 150 157 178 101 185 112 134 125 149 241 53 264 182 183 171 214 57 177 134 144 141 142 167 146
295 295 295 295 298 299 302 307 314 310 301 241 183 186 183 178 169 116 131 154 69 96 23 54 8 326 13 20 196 122 284 166 177 160 156 157 131 129 154 235 166 247 169 156 65 184 167 147 111 137 140 140 138 126
296 296 294 290 287 289 297 303 308 314 311 279 186 180 181 174 153 123 135 164 91 105 112 270 310 1 312 321 193 132 131 72 95 75 102 128 133 175 191 173 170 195 130 166 252 104 88 190 173 156 137 124 120 97
296 302 309 302 287 283 281 289 295 300 308 295 183 171 170 159 131 95 96 183 153 124 144 177 319 351 10 69 78 79 96 100 95 61 72 177 117 111 357 64 242 185 179 170 216 175 158 173 162 151 142 147 144 114
303 304 305 306 300 290 280 283 285 288 298 301 182 164 163 149 140 102 27 276 159 122 103 114 302 34 29 52 64 56 54 73 88 115 157 176 282 106 114 207 248 188 177 166 171 135 104 132 141 141 139 158 142 127
302 303 295 301 303 293 287 270 277 284 291 297 182 161 161 160 100 141 186 189 134 100 93 82 10 312 324 65 46 36 22 82 90 116 77 139 90 92 109 211 219 173 144 116 114 108 72 155 163 154 144 143 119 111
299 302 295 283 294 301 273 268 266 272 289 295 177 151 135 103 102 40 7 101 94 90 74 115 269 358 177 76 77 7 43 28 13 148 40 113 29 57 254 225 145 127 117 131 148 64 139 130 130 140 132 127 111 102
297 300 299 276 294 299 281 255 253 260 269 270 141 125 97 76 131 195 125 89 65 115 133 119 146 193 145 113 84 22 71 57 290 104 179 104 264 226 225 171 169 165 161 160 124 112 127 139 146 143 137 136 134 135
297 298 302 282 298 301 270 240 242 247 283 141 135 191 177 203 128 138 16 54 2 351 53 106 140 151 121 152 319 92 11 152 150 238 97 128 253 259 216 190 165 165 142 140 123 133 143 149 158 153 164 156 151 142
295 299 300 287 304 310 241 224 233 250 155 87 157 223 278 159 92 57 128 142 209 11 157 151 146 135 225 124 146 200 167 220 125 241 141 241 267 235 173 161 162 156 156 162 138 143 155 155 157 150 150 150 146 142
296 299 302 293 304 315 220 222 223 178 217 131 122 149 126 136 83 141 177 146 197 193 162 135 163 146 164 119 106 232 127 70 206 140 90 254 246 199 158 158 159 154 148 142 144 145 146 151 150 148 146 151 150 146
305 302 315 310 302 298 213 217 180 178 123 115 109 160 217 170 166 176 182 201 149 168 166 160 130 130 112 74 77 113 107 184 119 72 226 230 215 159 153 150 150 151 149 143 146 145 146 146 140 146 147 146 141 135
305 312 312 306 297 262 206 185 169 172 177 169 156 211 225 177 220 185 157 140 160 138 144 137 115 129 139 100 142 108 231 99 85 234 230 229 185 163 155 156 151 158 157 154 154 150 150 151 150 140 144 143 141 143
306 319 308 300 284 203 191 183 165 217 186 202 170 216 227 259 344 132 107 103 138 149 134 109 80 98 121 112 96 113 69 223 212 224 227 194 158 155 158 160 158 159 156 155 154 152 152 149 146 144 148 146 140 141
308 319 309 315 199 187 199 199 168 236 210 205 206 216 244 84 295 114 120 116 146 153 103 72 118 101 182 135 131 205 147 213 222 214 201 142 152 158 160 158 160 159 156 152 154 153 150 151 154 153 143 143 148 149
306 252 309 318 321 328 225 177 126 233 238 220 222 197 183 96 188 186 119 140 155 150 166 133 130 182 107 111 218 191 203 198 197 174 158 162 158 160 158 150 155 155 152 152 150 153 155 144 133 140 148 165 156 154
286 280 281 308 310 291 178 180 186 270 221 226 216 211 178 190 135 156 141 149 151 176 147 180 124 150 173 175 222 201 210 95 60 139 151 152 150 154 154 152 155 156 155 154 154 152 146 149 157 167 151 153 141 146
280 280 278 286 289 171 234 185 134 252 233 204 246 237 181 158 201 132 154 168 95 119 120 86 144 178 196 210 169 167 159 170 153 151 118 142 149 149 149 151 152 155 155 155 154 159 162 166 165 157 151 150 154 160
291 286 283 284 260 200 253 181 68 167 262 227 168 132 89 130 114 143 162 153 137 137 149 188 180 199 173 191 186 168 151 142 131 123 129 140 148 148 158 155 157 152 147 148 152 150 145 127 138 150 157 159 152 170
296 262 268 232 186 221 254 206 163 225 214 209 193 137 109 297 110 156 182 240 136 203 212 192 178 191 123 107 125 131 147 156 167 162 162 154 158 154 153 154 150 154 156 160 162 165 166 170 162 161 161 161 159 155
239 254 276 160 185 199 260 210 236 190 255 221 150 136 121 189 152 163 91 245 246 196 155 153 174 147 138 151 161 166 156 131 107 116 124 130 149 159 167 164 161 166 168 169 167 168 167 159 157 156 154 156 154 148
264 214 242 182 213 187 246 153 203 168 234 200 159 135 156 174 163 118 183 238 259 219 153 130 130 114 124 116 120 130 144 142 141 145 145 148 148 152 156 164 168 165 165 172 165 161 161 166 165 150 148 150 150 152
244 210 214 203 196 193 169 200 187 187 154 250 168 154 169 129 135 155 212 227 236 85 184 140 131 110 92 122 147 159 157 142 132 136 151 142 148 163 163 165 167 169 167 156 157 156 155 156 155 154 157 158 159 158
225 192 225 196 156 135 202 178 175 176 179 260 171 141 185 156 164 189 209 192 166 176 181 170 160 161 153 149 146 160 164 156 155 154 159 153 136 136 146 156 161 164 158 156 162 159 159 156 157 160 162 164 165 165
200 202 187 183 164 164 184 181 185 185 159 170 249 131 188 179 176 213 192 170 176 173 184 185 161 142 158 164 153 166 174 163 151 152 163 165 164 160 159 161 164 175 177 170 160 159 159 159 162 165 168 172 172 158
205 176 170 184 147 153 182 221 169 154 176 201 225 173 187 187 204 229 145 161 165 171 176 200 192 173 160 160 159 146 153 159 156 157 141 161 168 175 169 168 183 176 165 166 166 161 161 160 163 169 166 164 170 169
195 168 160 179 208 206 179 180 179 182 201 166 241 202 180 191 218 181 191 189 150 155 160 176 187 204 168 155 146 139 137 124 109 107 102 70 83 146 157 128 142 155 162 164 160 158 160 159 162 163 164 168 165 167
175 204 114 175 197 193 219 197 209 191 164 144 251 210 221 235 190 163 203 157 149 150 157 161 133 122 120 129 147 149 148 147 142 148 160 165 160 178 163 151 148 155 155 156 161 154 159 158 161 163 167 167 162 150
229 170 188 182 180 205 213 182 199 161 155 154 208 281 289 279 261 100 185 157 168 177 175 166 151 152 157 157 161 165 179 184 179 163 166 182 184 157 158 155 158 158 156 154 153 153 157 153 153 140 135 134 143 151
137 173 179 198 213 212 202 154 92 110 158 190 115 258 280 283 311 311 203 189 168 166 168 166 171 167 162 168 172 165 175 195 198 184 152 147 151 157 155 157 158 154 155 153 150 151 149 149 151 152 155 158 166 163
168 189 187 186 223 189 113 144 151 168 169 138 127 257 246 275 240 215 213 154 175 183 187 171 173 184 190 182 179 168 159 158 168 155 145 149 150 150 149 150 154 154 150 149 148 149 154 154 156 159 162 164 166 166
166 179 183 134 147 183 190 135 133 137 136 187 180 233 231 210 215 218 271 207 210 185 184 187 181 154 169 171 163 151 144 149 145 142 143 146 147 148 147 150 153 152 149 148 150 153 154 153 156 161 164 165 165 164